[[{"header":{"parameterUnit":"m.s-1","parameterCategory":2,"la1":30.2992,"la2":30.254,"lo1":-89.0895,"lo2":-89.0443,"dy":0.0025,"dx":0.0025,"nx":19,"ny":19,"refTime":"2026-04-15T21:00:00:Z","depth":"0","parameterNumber":2,"parameterNumberName":"U-component_of_CURRENTS"},"data":[0,0,0,-0.1313,-0.1314,-0.1441,-0.1442,-0.1721,-0.1723,0,0,0,0,0,0,0,0,0,0,0,-0.1272,-0.1272,-0.1313,-0.1315,-0.1441,-0.1442,-0.172,-0.1723,0,0,0,0,0,0,0,0,0,0,0,-0.1272,-0.1272,-0.1272,-0.1315,-0.1441,-0.1443,-0.172,-0.1605,0,0,0,0,0,0,0,0,0,0,-0.1471,-0.1408,-0.1272,-0.1272,-0.1315,-0.1441,-0.1443,-0.1598,-0.1612,-0.1684,0,-0.1676,0,-0.169,-0.1741,-0.1741,0,0,0,-0.1354,-0.1396,-0.1417,-0.1272,-0.1316,-0.1441,-0.1395,-0.1605,-0.1621,-0.1702,-0.168,-0.169,-0.1695,-0.1742,-0.1744,-0.1942,-0.1942,0,0,-0.1347,-0.1322,-0.1405,-0.1425,-0.1317,-0.1391,-0.1399,-0.1614,-0.1627,-0.1681,-0.1696,-0.17,-0.1744,-0.1746,-0.1942,-0.1942,0,0,0,-0.13,-0.1317,-0.1331,-0.1414,-0.1419,-0.1394,-0.1403,-0.1619,-0.1618,-0.1699,-0.1703,-0.1745,-0.1749,-0.1941,-0.1942,-0.1788,0,0,0,-0.1298,-0.1287,-0.1327,-0.1318,-0.1413,-0.1505,-0.1403,-0.1603,-0.1627,-0.1702,-0.1746,-0.1751,-0.1941,-0.1942,-0.1791,-0.1714,0,0,0,-0.1272,-0.1285,-0.1285,-0.1315,-0.135,-0.1501,-0.1516,-0.1609,-0.1629,-0.1742,-0.1752,-0.1941,-0.1941,-0.1795,-0.1721,-0.1697,0,0,0,-0.1264,-0.1256,-0.1284,-0.128,-0.1348,-0.1397,-0.1514,-0.1577,-0.1658,-0.1747,-0.1941,-0.1942,-0.1796,-0.1725,-0.1701,-0.1623,-0.1599,0,0,-0.1249,-0.1254,-0.1249,-0.1276,-0.1288,-0.1384,-0.1429,-0.1577,-0.1701,-0.1886,-0.189,-0.179,-0.1722,-0.1698,-0.1651,-0.1625,0,0,0,-0.1241,-0.1237,-0.1246,-0.1257,-0.13,-0.1352,-0.1482,-0.1559,-0.171,-0.1745,-0.1844,-0.1806,-0.1795,-0.1759,-0.1739,-0.1793,-0.1944,-0.1944,-0.1944,-0.1235,-0.1231,-0.1225,-0.1233,-0.1259,-0.1345,-0.1405,-0.1547,-0.1659,-0.1702,-0.172,-0.1649,-0.161,-0.1594,-0.165,-0.1773,-0.1772,-0.1772,-0.1772,-0.1223,-0.1221,-0.1203,-0.1193,-0.1219,-0.1257,-0.1372,-0.1437,-0.1549,-0.1646,-0.1643,-0.1647,-0.1563,-0.1632,-0.1763,-0.1764,-0.1765,-0.1766,-0.1767,-0.1242,-0.1235,-0.121,-0.1176,-0.1163,-0.12,-0.1226,-0.1308,-0.142,-0.1412,-0.1433,-0.1435,-0.1463,-0.142,-0.1419,-0.1419,-0.1418,-0.1418,-0.1418,-0.1281,-0.1249,-0.1214,-0.1168,-0.1132,-0.1109,-0.1145,-0.1181,-0.121,-0.1268,-0.1269,-0.1449,-0.1543,-0.152,-0.141,-0.1412,-0.1413,-0.1413,-0.1414,-0.1315,-0.1291,-0.1236,-0.119,-0.1095,-0.104,-0.1068,-0.1058,-0.1086,-0.1078,-0.1198,-0.1223,-0.1273,-0.1291,-0.1264,-0.1095,-0.1095,-0.1095,-0.1095,-0.1342,-0.1327,-0.1244,-0.1163,-0.1078,-0.1012,-0.0965,-0.0959,-0.1015,-0.1029,-0.1098,-0.1155,-0.1165,-0.1216,-0.1235,-0.1212,-0.1033,-0.1034,-0.1034,-0.1359,-0.1329,-0.1274,-0.1176,-0.1058,-0.0974,-0.0892,-0.0864,-0.0936,-0.1042,-0.1183,-0.1186,-0.1287,-0.13,-0.1401,-0.1424,-0.1396,0,0]},{"header":{"parameterUnit":"m.s-1","parameterCategory":2,"la1":30.2992,"la2":30.254,"lo1":-89.0895,"lo2":-89.0443,"dy":0.0025,"dx":0.0025,"nx":19,"ny":19,"refTime":"2026-04-15T21:00:00:Z","depth":"0","parameterNumber":3,"parameterNumberName":"V-component_of_CURRENTS"},"data":[0,0,0,-0.1401,-0.1401,-0.1329,-0.1328,-0.1043,-0.104,0,0,0,0,0,0,0,0,0,0,0,-0.1417,-0.1417,-0.1401,-0.1401,-0.1329,-0.1328,-0.1043,-0.104,0,0,0,0,0,0,0,0,0,0,0,-0.1417,-0.1417,-0.1417,-0.1401,-0.1329,-0.1328,-0.1044,-0.1137,0,0,0,0,0,0,0,0,0,0,-0.1227,-0.1279,-0.1417,-0.1417,-0.1401,-0.1329,-0.1328,-0.1143,-0.1131,-0.1033,0,-0.1048,0,-0.1054,-0.102,-0.1019,0,0,0,-0.136,-0.1289,-0.1283,-0.1417,-0.1401,-0.1329,-0.135,-0.1137,-0.1123,-0.1016,-0.1044,-0.1035,-0.1049,-0.1019,-0.1017,-0.0882,-0.0882,0,0,-0.1365,-0.1376,-0.1294,-0.1276,-0.141,-0.1353,-0.1348,-0.1131,-0.1115,-0.1043,-0.1029,-0.1045,-0.1017,-0.1014,-0.0881,-0.0882,0,0,0,-0.1403,-0.1379,-0.1381,-0.1286,-0.1298,-0.1351,-0.1346,-0.1124,-0.1131,-0.1027,-0.1041,-0.1015,-0.1011,-0.088,-0.0881,-0.1036,0,0,0,-0.1403,-0.1405,-0.1383,-0.1385,-0.1305,-0.1237,-0.1345,-0.1145,-0.1122,-0.1043,-0.1015,-0.1008,-0.0879,-0.0881,-0.103,-0.1088,0,0,0,-0.1415,-0.1405,-0.141,-0.1387,-0.1377,-0.1242,-0.1233,-0.1141,-0.1131,-0.1019,-0.1008,-0.0879,-0.0881,-0.1025,-0.1078,-0.1089,0,0,0,-0.1408,-0.1427,-0.1411,-0.143,-0.1379,-0.1374,-0.1235,-0.1183,-0.1103,-0.1013,-0.088,-0.0881,-0.1023,-0.1073,-0.1085,-0.1174,-0.1203,0,0,-0.1431,-0.143,-0.1443,-0.1428,-0.1457,-0.1379,-0.1383,-0.1211,-0.1091,-0.0927,-0.0925,-0.1032,-0.1078,-0.1088,-0.1275,-0.1301,0,0,0,-0.145,-0.1462,-0.1467,-0.1478,-0.1468,-0.1458,-0.1332,-0.127,-0.1141,-0.1061,-0.1024,-0.1047,-0.1049,-0.1093,-0.1114,-0.1015,-0.0889,-0.0889,-0.0889,-0.1471,-0.1483,-0.1514,-0.153,-0.1529,-0.1493,-0.1468,-0.1354,-0.1223,-0.1205,-0.1169,-0.1275,-0.1328,-0.1344,-0.1242,-0.1167,-0.1167,-0.1168,-0.1168,-0.1514,-0.154,-0.1554,-0.159,-0.16,-0.1597,-0.154,-0.1481,-0.1401,-0.13,-0.1293,-0.125,-0.1376,-0.1258,-0.1178,-0.1176,-0.1175,-0.1174,-0.1173,-0.1537,-0.1555,-0.1577,-0.1625,-0.1664,-0.1657,-0.1674,-0.1618,-0.1515,-0.1533,-0.149,-0.1487,-0.1382,-0.15,-0.15,-0.15,-0.1501,-0.1501,-0.1501,-0.1552,-0.1579,-0.1613,-0.1661,-0.1697,-0.1736,-0.1737,-0.1728,-0.1704,-0.1652,-0.1651,-0.1422,-0.1374,-0.1358,-0.1507,-0.1506,-0.1505,-0.1504,-0.1504,-0.1585,-0.1584,-0.1639,-0.1679,-0.1761,-0.1836,-0.1839,-0.1884,-0.1855,-0.1871,-0.167,-0.1696,-0.1636,-0.1619,-0.1607,-0.181,-0.181,-0.181,-0.181,-0.1589,-0.1598,-0.1659,-0.1726,-0.1805,-0.1882,-0.1995,-0.2055,-0.1946,-0.1879,-0.1739,-0.1695,-0.1687,-0.1623,-0.1605,-0.1589,-0.1783,-0.1783,-0.1783,-0.1596,-0.162,-0.1663,-0.1732,-0.183,-0.1939,-0.2082,-0.2235,-0.2067,-0.1764,-0.1585,-0.1587,-0.1498,-0.1493,-0.1368,-0.1351,-0.1314,0,0]}],[{"header":{"parameterUnit":"m.s-1","parameterCategory":2,"la1":30.2992,"la2":30.254,"lo1":-89.0895,"lo2":-89.0443,"dy":0.0025,"dx":0.0025,"nx":19,"ny":19,"refTime":"2026-04-15T21:00:00:Z","depth":"2","parameterNumber":2,"parameterNumberName":"U-component_of_CURRENTS"},"data":[0,0,0,-0.235,-0.2354,-0.254,-0.254,-0.2611,-0.2611,0,0,0,0,0,0,0,0,0,0,0,-0.2279,-0.228,-0.2349,-0.2355,-0.254,-0.254,-0.2611,-0.2611,0,0,0,0,0,0,0,0,0,0,0,-0.2278,-0.228,-0.2282,-0.2355,-0.254,-0.254,-0.2611,-0.2509,0,0,0,0,0,0,0,0,0,0,-0.2348,-0.2306,-0.2279,-0.2282,-0.2357,-0.254,-0.2541,-0.2506,-0.2515,-0.2483,0,-0.2526,0,-0.2576,-0.2613,-0.2613,0,0,0,-0.2342,-0.2299,-0.2358,-0.2282,-0.2358,-0.2539,-0.2453,-0.2512,-0.2523,-0.2495,-0.2528,-0.2532,-0.2578,-0.2613,-0.2614,-0.2699,-0.2699,0,0,-0.2331,-0.2298,-0.2351,-0.2365,-0.2422,-0.2447,-0.2458,-0.2521,-0.2528,-0.2528,-0.2535,-0.2579,-0.2614,-0.2614,-0.2698,-0.2699,0,0,0,-0.2311,-0.229,-0.2351,-0.236,-0.2412,-0.2452,-0.2466,-0.2525,-0.2549,-0.2536,-0.258,-0.2614,-0.2614,-0.2697,-0.2698,-0.2701,0,0,0,-0.2304,-0.228,-0.2346,-0.2326,-0.2412,-0.2493,-0.2468,-0.2545,-0.2554,-0.2579,-0.2614,-0.2615,-0.2697,-0.2698,-0.27,-0.2693,0,0,0,-0.2267,-0.2276,-0.2305,-0.2324,-0.2413,-0.2494,-0.2522,-0.2549,-0.258,-0.2613,-0.2615,-0.2696,-0.2698,-0.2698,-0.2691,-0.2643,0,0,0,-0.2215,-0.2261,-0.2304,-0.2378,-0.2412,-0.2536,-0.2523,-0.26,-0.2634,-0.2614,-0.2697,-0.2698,-0.2698,-0.2689,-0.2643,-0.2438,-0.2422,0,0,-0.2239,-0.2263,-0.2311,-0.2354,-0.2476,-0.2508,-0.261,-0.264,-0.2644,-0.266,-0.2664,-0.27,-0.2691,-0.2643,-0.2534,-0.2514,0,0,0,-0.2298,-0.2323,-0.2372,-0.2457,-0.2555,-0.262,-0.2675,-0.268,-0.2708,-0.2677,-0.2733,-0.2728,-0.2696,-0.2574,-0.256,-0.2706,-0.2706,-0.2706,-0.2706,-0.2243,-0.2328,-0.2399,-0.2506,-0.2587,-0.2697,-0.2733,-0.2748,-0.275,-0.2762,-0.2755,-0.2756,-0.263,-0.2616,-0.2788,-0.2788,-0.2788,-0.2788,-0.2788,-0.224,-0.2251,-0.2385,-0.2472,-0.2579,-0.2658,-0.2754,-0.2769,-0.2781,-0.2789,-0.2758,-0.2616,-0.2599,-0.2789,-0.2789,-0.2789,-0.2789,-0.2789,-0.2789,-0.2145,-0.215,-0.224,-0.2355,-0.2465,-0.2602,-0.2638,-0.2727,-0.276,-0.2767,-0.259,-0.2587,-0.2711,-0.2733,-0.2733,-0.2733,-0.2733,-0.2732,-0.2732,-0.196,-0.2053,-0.2071,-0.2219,-0.2286,-0.2388,-0.2554,-0.2573,-0.2568,-0.2572,-0.257,-0.2737,-0.2738,-0.2708,-0.2729,-0.273,-0.273,-0.273,-0.2731,-0.1778,-0.1817,-0.1842,-0.19,-0.2049,-0.2068,-0.2253,-0.2248,-0.2302,-0.2238,-0.2443,-0.2451,-0.2415,-0.2425,-0.2388,-0.2324,-0.2324,-0.2324,-0.2324,-0.1607,-0.1643,-0.1627,-0.1671,-0.1744,-0.1898,-0.1819,-0.1876,-0.1987,-0.1995,-0.201,-0.1983,-0.2005,-0.1947,-0.1968,-0.1922,-0.1737,-0.1737,-0.1736,-0.1466,-0.1492,-0.143,-0.1508,-0.1603,-0.1667,-0.1585,-0.1491,-0.1469,-0.1718,-0.196,-0.2275,-0.2274,-0.2294,-0.2239,-0.2259,-0.2199,0,0]},{"header":{"parameterUnit":"m.s-1","parameterCategory":2,"la1":30.2992,"la2":30.254,"lo1":-89.0895,"lo2":-89.0443,"dy":0.0025,"dx":0.0025,"nx":19,"ny":19,"refTime":"2026-04-15T21:00:00:Z","depth":"2","parameterNumber":3,"parameterNumberName":"V-component_of_CURRENTS"},"data":[0,0,0,0.0423,0.0423,0.0388,0.0388,0.0396,0.0396,0,0,0,0,0,0,0,0,0,0,0,0.0431,0.0431,0.0423,0.0423,0.0388,0.0388,0.0395,0.0396,0,0,0,0,0,0,0,0,0,0,0,0.0431,0.0431,0.0431,0.0422,0.0388,0.0388,0.0395,0.0406,0,0,0,0,0,0,0,0,0,0,0.0431,0.0426,0.0431,0.0431,0.0422,0.0389,0.0388,0.0405,0.0405,0.0429,0,0.0427,0,0.0421,0.0399,0.0399,0,0,0,0.0411,0.0426,0.043,0.0431,0.0422,0.0389,0.04,0.0405,0.0404,0.0429,0.0427,0.0427,0.0421,0.0399,0.0399,0.0325,0.0324,0,0,0.0413,0.0412,0.043,0.043,0.042,0.0402,0.04,0.0404,0.04,0.0427,0.0427,0.0421,0.0399,0.0399,0.0326,0.0325,0,0,0,0.0426,0.0413,0.0415,0.043,0.0424,0.0401,0.0399,0.0399,0.0404,0.0427,0.0421,0.0399,0.04,0.0328,0.0326,0.0197,0,0,0,0.0426,0.0422,0.0416,0.0414,0.0424,0.0402,0.0394,0.0403,0.0403,0.0421,0.0399,0.04,0.0329,0.0327,0.0204,0.019,0,0,0,0.0431,0.0422,0.0423,0.0414,0.0406,0.0402,0.0405,0.0402,0.0401,0.0399,0.04,0.033,0.0327,0.0209,0.0198,0.0164,0,0,0,0.0425,0.039,0.0423,0.0384,0.0407,0.0351,0.0405,0.0357,0.0343,0.04,0.0329,0.0326,0.0211,0.0203,0.0168,0.0226,0.021,0,0,0.037,0.0384,0.0361,0.0389,0.033,0.0355,0.0268,0.0276,0.0314,0.0333,0.033,0.0202,0.0199,0.0165,0.0073,0.0062,0,0,0,0.0336,0.031,0.0301,0.028,0.0271,0.023,0.0226,0.0211,0.0177,0.0299,0.0183,0.0187,0.0169,0.0212,0.0202,0.0313,0.0314,0.0314,0.0314,0.024,0.0243,0.0184,0.0173,0.015,0.0124,0.0083,0.0064,0.01,0.0045,0.0066,-0.0063,-0.0023,-0.0028,0.0027,0.0026,0.0026,0.0025,0.0025,0.0129,0.0093,0.0091,0.003,0.0025,-0.0037,-0.0065,-0.0071,-0.0121,-0.0078,-0.009,0.0055,-0.0046,0.0015,0.0016,0.0018,0.0019,0.002,0.002,0.006,0.0041,0.0006,-0.0066,-0.0123,-0.0138,-0.019,-0.0198,-0.021,-0.0239,-0.0154,-0.015,-0.0096,-0.0253,-0.0253,-0.0253,-0.0254,-0.0254,-0.0254,0.0013,-0.0024,-0.0108,-0.0167,-0.0213,-0.0249,-0.0265,-0.0274,-0.0267,-0.0258,-0.0257,-0.0155,-0.0146,-0.0111,-0.0258,-0.0257,-0.0257,-0.0256,-0.0256,-0.0044,-0.0076,-0.0195,-0.0258,-0.0357,-0.0402,-0.0369,-0.0343,-0.0336,-0.0325,-0.0258,-0.0257,-0.019,-0.018,-0.0146,-0.0293,-0.0293,-0.0293,-0.0293,-0.0074,-0.0103,-0.0272,-0.0387,-0.0473,-0.0484,-0.0485,-0.0269,-0.0158,0.0005,-0.0007,0.0066,0.0059,0.0147,0.015,0.0195,0.0136,0.0137,0.0139,-0.0093,-0.0156,-0.0273,-0.0426,-0.0537,-0.0574,-0.0543,-0.0166,0.0271,0.0165,0.0172,-0.0284,-0.0208,-0.0206,-0.0092,-0.0081,-0.0016,0,0]}],[{"header":{"parameterUnit":"m.s-1","parameterCategory":2,"la1":30.2992,"la2":30.254,"lo1":-89.0895,"lo2":-89.0443,"dy":0.0025,"dx":0.0025,"nx":19,"ny":19,"refTime":"2026-04-15T21:00:00:Z","depth":"4","parameterNumber":2,"parameterNumberName":"U-component_of_CURRENTS"},"data":[0,0,0,-0.1,-0.1002,-0.1093,-0.1093,-0.1237,-0.1239,0,0,0,0,0,0,0,0,0,0,0,-0.0965,-0.0966,-0.1,-0.1002,-0.1093,-0.1093,-0.1237,-0.1239,0,0,0,0,0,0,0,0,0,0,0,-0.0965,-0.0966,-0.0966,-0.1003,-0.1093,-0.1093,-0.1237,-0.1161,0,0,0,0,0,0,0,0,0,0,-0.1069,-0.1039,-0.0966,-0.0966,-0.1003,-0.1093,-0.1093,-0.1157,-0.1166,-0.1205,0,-0.122,0,-0.1238,-0.1249,-0.125,0,0,0,-0.1,-0.1031,-0.1053,-0.0967,-0.1004,-0.1093,-0.1051,-0.1162,-0.1171,-0.1217,-0.1222,-0.1228,-0.124,-0.125,-0.1251,-0.1374,-0.1374,0,0,-0.0995,-0.0987,-0.1045,-0.1059,-0.1031,-0.1048,-0.1054,-0.1167,-0.1182,-0.1223,-0.1231,-0.1242,-0.1251,-0.1253,-0.1373,-0.1374,0,0,0,-0.0982,-0.0984,-0.1002,-0.1053,-0.107,-0.1051,-0.1058,-0.1176,-0.1182,-0.1233,-0.1244,-0.1252,-0.1254,-0.1373,-0.1373,-0.1367,0,0,0,-0.0979,-0.0976,-0.0999,-0.0996,-0.1067,-0.1122,-0.1064,-0.1173,-0.1187,-0.1243,-0.1252,-0.1256,-0.1373,-0.1373,-0.1367,-0.1319,0,0,0,-0.0961,-0.0975,-0.0984,-0.0995,-0.1036,-0.1121,-0.1132,-0.1176,-0.1194,-0.125,-0.1256,-0.1373,-0.1373,-0.1367,-0.1321,-0.1317,0,0,0,-0.0949,-0.0962,-0.0985,-0.1007,-0.1035,-0.1099,-0.1132,-0.1194,-0.1241,-0.1253,-0.1373,-0.1373,-0.1366,-0.1322,-0.1318,-0.1149,0,0,0,-0.0953,-0.0963,-0.0974,-0.0996,-0.103,-0.1086,-0.1146,-0.1222,-0.1259,-0.1337,-0.134,-0.1367,-0.1321,-0.1317,-0.1175,0,0,0,0,-0.0967,-0.0967,-0.0986,-0.1013,-0.1069,-0.1119,-0.1205,-0.1242,-0.1313,-0.129,-0.1377,-0.1347,-0.1345,-0.125,-0.1375,-0.1375,-0.1375,-0.1375,-0.1375,-0.0934,-0.0958,-0.0973,-0.1014,-0.1065,-0.1156,-0.1197,-0.1264,-0.1328,-0.1355,-0.1351,-0.1349,-0.1251,-0.1386,-0.1386,-0.1386,-0.1386,-0.1386,-0.1386,-0.0893,-0.0888,-0.0941,-0.0966,-0.1039,-0.1105,-0.1215,-0.1262,-0.1316,-0.1354,-0.1355,-0.1261,-0.1385,-0.1385,-0.1385,-0.1385,-0.1385,-0.1385,-0.1385,-0.0828,-0.0834,-0.0863,-0.0896,-0.0963,-0.1074,-0.1102,-0.12,-0.1286,-0.1284,-0.1203,-0.1332,-0.1321,-0.131,-0.131,-0.1309,-0.1309,-0.1309,-0.1309,-0.075,-0.0779,-0.0771,-0.0829,-0.0852,-0.0927,-0.1049,-0.108,-0.1187,-0.114,-0.1283,-0.1323,-0.1325,-0.1317,-0.1306,-0.1306,-0.1307,-0.1307,-0.1307,-0.0676,-0.0691,-0.0656,-0.0666,-0.0721,-0.0765,-0.0905,-0.0948,-0.0966,-0.0945,-0.1071,-0.1084,-0.1061,-0.1069,-0.1051,-0.0961,-0.0958,-0.0956,0,-0.062,-0.0626,-0.057,-0.0549,-0.0562,-0.0676,-0.0678,-0.0753,-0.0837,-0.0819,-0.0973,-0.1116,-0.1124,-0.1101,-0.1105,-0.1083,0,0,0,-0.0577,-0.0564,-0.0509,-0.0497,-0.0497,-0.0585,-0.0691,-0.0677,-0.0831,-0.0775,-0.0899,-0.0914,-0.1124,-0.1296,-0.1291,-0.1294,-0.1278,0,0]},{"header":{"parameterUnit":"m.s-1","parameterCategory":2,"la1":30.2992,"la2":30.254,"lo1":-89.0895,"lo2":-89.0443,"dy":0.0025,"dx":0.0025,"nx":19,"ny":19,"refTime":"2026-04-15T21:00:00:Z","depth":"4","parameterNumber":3,"parameterNumberName":"V-component_of_CURRENTS"},"data":[0,0,0,-0.0035,-0.0035,-0.0053,-0.0053,-0.0053,-0.0053,0,0,0,0,0,0,0,0,0,0,0,-0.0032,-0.0032,-0.0035,-0.0035,-0.0053,-0.0053,-0.0053,-0.0053,0,0,0,0,0,0,0,0,0,0,0,-0.0032,-0.0032,-0.0032,-0.0035,-0.0053,-0.0053,-0.0053,-0.0046,0,0,0,0,0,0,0,0,0,0,-0.0032,-0.0039,-0.0032,-0.0032,-0.0035,-0.0053,-0.0053,-0.0046,-0.0047,-0.0038,0,-0.0042,0,-0.0044,-0.0053,-0.0052,0,0,0,-0.0038,-0.0039,-0.0035,-0.0032,-0.0035,-0.0053,-0.0046,-0.0047,-0.0047,-0.0038,-0.0042,-0.0042,-0.0044,-0.0052,-0.0052,-0.0094,-0.0095,0,0,-0.0037,-0.0043,-0.0034,-0.0035,-0.0041,-0.0045,-0.0046,-0.0047,-0.0053,-0.0042,-0.0042,-0.0044,-0.0052,-0.0052,-0.0094,-0.0095,0,0,0,-0.0032,-0.0042,-0.0039,-0.0035,-0.0038,-0.0045,-0.0047,-0.0053,-0.005,-0.0042,-0.0044,-0.0052,-0.0052,-0.0093,-0.0094,-0.0179,0,0,0,-0.0032,-0.0038,-0.0038,-0.0043,-0.0038,-0.005,-0.0052,-0.005,-0.005,-0.0044,-0.0052,-0.0052,-0.0093,-0.0094,-0.0176,-0.0221,0,0,0,-0.0031,-0.0039,-0.0039,-0.0043,-0.0048,-0.005,-0.0048,-0.005,-0.0051,-0.0052,-0.0052,-0.0092,-0.0094,-0.0173,-0.0215,-0.0127,0,0,0,-0.0037,-0.0081,-0.0039,-0.0098,-0.0047,-0.0107,-0.0048,-0.0084,-0.0094,-0.0052,-0.0093,-0.0094,-0.0172,-0.0212,-0.0125,-0.0052,0,0,0,-0.0104,-0.0089,-0.0128,-0.0092,-0.0169,-0.0104,-0.0177,-0.0153,-0.0107,-0.009,-0.0091,-0.0177,-0.0215,-0.0126,-0.0131,0,0,0,0,-0.0158,-0.0181,-0.0201,-0.023,-0.0244,-0.0252,-0.0223,-0.0194,-0.0176,-0.0116,-0.018,-0.0201,-0.0141,-0.0096,-0.0101,-0.01,-0.01,-0.01,-0.01,-0.0234,-0.0253,-0.0323,-0.0342,-0.037,-0.0357,-0.0353,-0.0303,-0.0255,-0.025,-0.0272,-0.0272,-0.0234,-0.0268,-0.0269,-0.0269,-0.0269,-0.027,-0.027,-0.0323,-0.0357,-0.0391,-0.0462,-0.0467,-0.0508,-0.0464,-0.0421,-0.0361,-0.0343,-0.0278,-0.0197,-0.0278,-0.0277,-0.0275,-0.0274,-0.0274,-0.0273,-0.0273,-0.0348,-0.0369,-0.0417,-0.0502,-0.0568,-0.0575,-0.056,-0.0526,-0.043,-0.0416,-0.0253,-0.029,-0.0272,-0.034,-0.034,-0.034,-0.034,-0.0339,-0.0339,-0.0333,-0.0388,-0.0444,-0.0536,-0.0586,-0.062,-0.0598,-0.0524,-0.0436,-0.0338,-0.0406,-0.0293,-0.0291,-0.0273,-0.0337,-0.0337,-0.0338,-0.0338,-0.0338,-0.0346,-0.0358,-0.0436,-0.049,-0.0591,-0.0612,-0.0595,-0.0428,-0.0316,-0.0201,-0.0245,-0.025,-0.0185,-0.0184,-0.016,-0.0192,-0.0191,-0.0191,0,-0.0326,-0.0348,-0.0418,-0.0489,-0.0543,-0.0595,-0.045,-0.0362,-0.0248,-0.0249,-0.0309,-0.0368,-0.0368,-0.0306,-0.0303,-0.0282,0,0,0,-0.0319,-0.0339,-0.0377,-0.0459,-0.0529,-0.045,-0.0412,-0.0338,-0.0288,-0.0147,-0.0171,-0.0176,-0.0294,-0.033,-0.024,-0.0237,-0.0203,0,0]}]]